sat.trackr.live / text

‹ back to catalog

EUTELSAT 8 WEST B

NORAD 40875 · 2015-039B

PAYLOAD ACTIVE UNKNOWN

§ Identity

Operator
Country
EUTE
Launch date
2015-08-20
Launch site
FRGUI
Launch vehicle
Mass (kg)
RCS (m²)
7.42

Purposes: comms

External: N2YO · Heavens-Above · Gunter

§ Orbital elements

Epoch: 2026-09-20T03:11:50.825760Z

Period
1,436.11 min
Inclination
0.0677°
Eccentricity
0.0003631
Mean motion
1.00271215 rev/d
Perigee alt
35,771.4 km
Apogee alt
35,802.1 km
Semi-major
42,164.9 km
B*
0.0000e+0
RAAN
3.2667°
Arg perigee
175.9050°
Mean anomaly
219.8407°
Rev number
4,060

§ Raw data

EUTELSAT 8 WEST B1 40875U 15039B   26263.13322715 -.00000070  00000+0  00000+0 0  99912 40875   0.0677   3.2667 0003631 175.9050 219.8407  1.00271215 40600

JSON: /api/v1/satellites/40875 · /tle

For live sub-satellite position, see the globe view (requires WebGL).

§ Visibility from observer

Set your observer location to see the next 7 days of passes ≥ 10°. The values pass through the URL so the page stays shareable.

No JS? Fill the form by hand. The geolocation button needs JavaScript.